Погода Токо

Погода Токо : погода сейчас, прогноз погоды и архив. Всё, что Вы хотите узнать о погоде Токо!

Хотите узнать прогноз погоды Токо? Тогда Вам сюда: Погода Токо

Поиск расширенной информации на нашем сайте:

Другие новости

Новости СМИ2

Главная страница сайта

Новости сайта

03.07.2017

Напоминаем, что на нашем специализированном сайте Метеоцентр.Азия вы можете получить высокодетализированные автоматические прогнозы погоды по пунктам России, СНГ и мира в авиационном формате (включающие направление и скорость ветра, видимость, явления погоды, количество и форму облачности, нижнюю и верхнюю границу облачности).


Погода Токо - сегодня

Время (UTC), дата Ветер
(°,м/с) 
Видим.   Явления Облачность Т
(°С)
Тd
(°С)
f(%) Тe
(°С)
Pmin
(гПа)
dP
(гПа)
Po
(мм)
O2
(г/м3)
Тmin Tmax R s Состояние
почвы
03 18.11.18 тихо ()   20000 м  {снег}  8/0 средняя 
[As trans]
-17.6 -19.5 85 -18  1018.2  -1.3  690  299           
06 18.11.18 тихо ()   20000 м  {снег}  8/0 средняя, верхняя 
[Ac trans|Ci fib]
-16 -18.7 80 -16  1016.8  -0.6  682  293           
09 18.11.18 230 (ЮЗ) 20000 м    8/0 средняя 
[Ac trans]
-22.5 -25 80 -23  1020.1  0.3  682  301           
12 18.11.18 тихо ()   20000 м    10/0 средняя 
[As op]
-20.5 -22.4 85 -21  1019.3  0.2  682  299    -16  0.4     
15 18.11.18 180 (Ю) 20000 м    9/0 средняя 
[As trans]
-22 -23.8 85 -22  1019.5  -0.4  682  300           
18 18.11.18 тихо ()   20000 м    8/0 средняя 
[As trans]
-23.2 -25 85 -23  1019.5  -0.5  681  301           
21 18.11.18 тихо ()   20000 м    9/0 средняя, верхняя 
[As trans|Cs]
-24.6 -26.3 86 -25  1020  -0.2  682  303           
00 19.11.18 тихо ()   20000 м    4/0 средняя, верхняя 
[As trans|Ci fib]
-29.6 -31.3 85 -30  1022.3  -0.2  681  310  -19.6      22  равномерный
сухой снег
100% 
03 19.11.18 тихо ()   20000 м    3/0 верхняя 
[Ci fib]
-18.8 -22.1 75 -19  1016.8  -0.2  681  296           
06 19.11.18 290 (З) 20000 м    10/0 верхняя 
[Cs]
-17.4 -20.8 75 -18  1015.7  -0.5  681  294           
09 19.11.18 180 (Ю) 20000 м    6/0 верхняя 
[Ci fib]
-27.2 -29.6 80 -28  1020.5  0.4  681  306           
12 19.11.18 тихо ()   20000 м    ясно 
-33.4 -35 86 -33  1024.4  0.6  682  315    -17.4       
15 19.11.18 270 (З) 20000 м    3/3 1000 м 
[Sc]
-35.8 -37.4 85 -37  1025.1  -0.4  681  318           
18 19.11.18 тихо ()   20000 м    ясно 
-36.6 -38.1 86 -37  1025.2  -0.3  681  319           
21 19.11.18 тихо ()   20000 м    ясно 
-37.7 -39.3 85 -38  1025.4  -0.4  681  320           
03 20.11.18 тихо ()   20000 м    4/1 1000 м верхняя 
[Sc|Ci fib]
-27.6 -29.9 81 -28  1019.7  -0.6  680  307           
06 20.11.18 тихо ()   20000 м    6/0 верхняя 
[Ci]
-23.6 -26.8 75 -24  1017.2  -0.7  680  301           
09 20.11.18 230 (ЮЗ) 20000 м    3/0 верхняя 
[Ci fib]
-32.5 -34.8 80 -33  1021.9  0.4  680  313           
15 20.11.18 тихо ()   20000 м    ясно верхняя 
[Cs]
-35.2 -37.4 80 -35  1022.6  -0.5  680  316           
18 20.11.18 тихо ()   10 км  слаб. снег  10/0 средняя 
[As op]
-31.6 -33.8 81 -32  1020.7  -0.1  680  311           
21 20.11.18 тихо ()   10 км  слаб. снег  10/0 средняя 
[As op]
-30.3 -32.7 80 -30  1019.8  -0.2  680  310           
03 21.11.18 тихо ()   20000 м    10/0 верхняя 
[Cs]
-25.2 -28.4 75 -25  1018.6  0.3  680  304           
06 21.11.18 тихо ()   20000 м    10/0 верхняя 
[Cs]
-25 -28.1 75 -25  1019.1  0.5  681  304           
09 21.11.18 230 (ЮЗ) 20000 м  слаб. снег  10/0 средняя 
[As op]
-28 -30.4 80 -29  1021.7  0.9  682  308           
15 21.11.18 тихо ()   10 км  слаб. снег  10/0 средняя 
[As op]
-26.2 -28 85 -26  1019.8  -0.6  681  305           
Время (UTC), дата Ветер
(°,м/с) 
Видим.   Явления Облачность Т
(°С)
Тd
(°С)
f(%) Тe
(°С)
Pmin
(гПа)
dP
(гПа)
Po
(мм)
O2
(г/м3)
Тmin Tmax R s Состояние
почвы

Для получения пояснительной информации подведите курсор к названию столбца.

ПОГОДА Токо - архив

Всё, что Вы хотите узнать о погоде Токо - удобно и подробно!

Выберите нужную дату (начиная с 1 января 2015* года) и нажмите кнопку "Найти".
Будут отображены архивные сводки погоды по пункту Токо, начиная с указанной даты.


Отображать данные в формате CSV (для использования в таблицах Excel)


Внимание! Наш архив погоды предназначен исключительно для личного некоммерческого использования в познавательных целях. Если Вам необходимы официальные справки о состоянии погоды (для производственных, юридических, коммерческих и т.п. целей), обращайтесь в органы Росгидромета.

*Примечание: данная дата относится к архиву по метеостанциям СССР (Россия, СНГ, Балтия).
Архив по метеостанциям Зарубежной Европы и Азии (кроме Китая) хранится 10 дней, по другим регионам земного шара (Китай, Африка, Америка, Австралия, Океания) - 1 день.

Токо - район местоположения метеостанции


Название, широта, долгота, высота метеостанции:
Токо 56.3°ш. 131.1°д. 850 м над ур. моря [Российская Федерация]

Дополнительная информация

В oтличие oт бoльшинства пoгoдных сайтoв мы публикуем пoдрoбную метеoинфoрмацию в детальнoм прoфессиoнальнoм фoрмате.

Характеристики температуры и влажнoсти вoздуха измеряются на высoте 2 м в тени вдали oт зданий и деревьев.
Скoрoсть ветра измеряется на высoте 10 м (на урoвне рoста челoвека скoрoсть ветра ниже в 1.5-2 раза). Если метеoстанция нахoдится в гoрoде или в лесу, тo скoрoсть ветра занижена на 2-4 м/с пo сравнению с oткрытым местoм. Скoрoсть ветра над акватoриями крупных рек и oзёр, а также на вершинах хoлмoв на 2-5 м/с выше, чем в oбычных услoвиях.
Атмoсфернoе давление в разных тoчках местнoсти мoжет значительнo oтличаться oт давления на метеoстанции, в зависимoсти oт услoвий рельефа (при пoдъёме на 10 м давление пoнижается примернo на 1 мм рт.ст.).